Location: *
(0.1100°N, 5.5000°E)
Time: 11:30:59
(UTC+00:00)

Daily predictions for brighter satellites

Satellite Brightness Start Highest point End
(mag) Time Altitude Azimuth Time Altitude Azimuth Time Altitude Azimuth
ARIANE 5 R/B 4.5 17:27:45 10° W 17:32:23 79° N 17:54:08 10° E
Delta 2 Rocket 4.2 18:04:01 10° WSW 18:11:39 73° SSE 18:18:02 10° ENE
NOAA 12 4.2 18:06:52 10° SSE 18:12:06 58° ENE 18:17:19 10° N
YAOGAN 1 2.5 18:07:59 10° SSE 18:12:19 76° ENE 18:16:37 10° N
EO 1 Del DPAF 3.7 18:12:08 10° NNE 18:15:42 39° ESE 18:19:16 10° S
Cosmos 1709 Rocket 4.4 18:10:36 10° NNE 18:16:15 39° E 18:21:59 10° SSE
Cosmos 1408 Rocket 3.8 18:12:18 10° S 18:16:47 77° W 18:21:12 10° N
OAO 2 Rocket 3.6 18:12:15 10° SW 18:17:13 50° SE 18:22:15 10° ENE
ASTRO E2 4.3 18:14:31 10° W 18:18:12 36° NNW 18:21:51 10° NE
COSMOS 2487 2.4 18:14:55 10° NNW 18:18:23 88° W 18:21:53 10° S
Landsat 4 4.3 18:15:37 10° NE 18:19:02 33° ESE 18:22:28 10° SSE
ALOS 3.5 18:14:57 10° S 18:19:24 45° WSW 18:23:51 10° NNW
Ariane H10 1.0 18:18:29 10° W 18:20:46 69° S 18:23:34 12° ESE
Cosmos 1486 Rocket 4.3 18:17:02 10° S 18:22:04 44° ESE 18:27:05 10° NNE
Cosmos 2058 3.2 18:21:26 10° S 18:25:31 71° W 18:29:34 10° N
SeaSat 1 3.8 18:23:45 10° ENE 18:26:46 16° ESE 18:29:45 10° SSE
Star 48 S/N 10018-3 4.0 18:25:17 10° WNW 18:28:27 74° SSW 18:30:06 17° ESE
ARIANE 5 DEB (SYLDA) 3.6 18:27:23 10° W 18:31:30 69° N 18:41:21 11° E
ARIANE 5 DEB (SYLDA) 3.5 18:28:13 10° WSW 18:31:47 60° S 18:38:06 15° E
SWIFT 3.9 18:29:18 10° W 18:33:08 33° NNW 18:37:00 10° NE
SL-08 ROCKET BODY 4.5 18:31:30 10° NNE 18:37:10 51° E 18:42:49 10° SSE
Cosmos 405 Rocket 3.6 18:34:58 10° NNE 18:38:34 31° E 18:40:53 18° SE
FREGAT/IRIS 3.7 18:39:41 23° E 18:40:04 24° E 18:42:29 10° NNE
Cosmos 371 Rocket 4.0 18:36:52 10° NNW 18:41:38 56° WSW 18:46:23 10° S
deb Ariane 4.3 18:39:39 10° WSW 18:42:37 27° S 18:43:48 20° SSE
Ariane Rocket 4.5 18:39:04 10° S 18:43:45 37° WSW 18:48:25 10° NW
SPOT 3 Rocket 3.8 18:39:05 10° SSE 18:44:05 47° ENE 18:49:03 10° N
GOES 2 Rocket 3.8 18:38:08 10° SW 18:45:03 60° SSE 18:49:11 17° ENE
GPS 2-12 Rocket1 3.5 18:43:05 10° W 18:47:49 55° SSW 18:50:33 24° SE
Timation 2 Rocket 4.1 18:42:43 10° NNW 18:49:32 87° ENE 18:56:09 10° SSE
Cosmos 304 Rocket 4.0 18:45:41 10° N 18:50:17 47° ENE 18:53:03 22° SE
BLOCK DM-SL R/B 3.7 18:42:28 10° W 18:53:56 82° S 18:56:55 25° E
Cosmos 1503 Rocket 4.2 18:50:36 10° S 18:55:32 46° ESE 19:00:27 10° NNE
Ariane H10+ 4.0 18:34:17 10° W 18:55:57 60° N 19:00:57 16° ENE
In-Cosmos 22 Rocket 4.3 18:50:47 10° S 18:56:02 50° E 19:01:24 10° NNE
ARIANE 5 R/B 3.2 18:52:28 10° WNW 18:56:11 66° N 19:00:06 22° E
Cosmos 1697 Rocket 3.6 18:53:14 10° SSE 18:58:52 26° E 19:02:39 10° NE
GPS 2-15 Rocket1 4.1 18:53:58 10° W 18:58:42 48° NNW 19:02:49 14° NE
DELTA 2 R/B (1) 4.2 18:53:17 10° WSW 18:58:43 57° NW 19:04:09 10° NE
Cosmos 1818 3.9 18:53:25 10° NNW 18:58:48 66° WSW 19:03:37 13° SSE
Lacrosse 5 3.4 18:56:27 10° NNE 18:59:50 18° ENE 18:59:58 18° ENE
Ariane 42P Rocket 1.4 19:00:52 10° W 19:03:06 63° N 19:03:06 63° N
Cosmos 2369 3.6 19:01:31 10° S 19:07:04 60° ESE 19:12:36 10° NNE
Cosmos 1515 Rocket 4.2 19:06:34 10° NNE 19:10:04 37° ENE 19:10:04 37° ENE
Cosmos 2228 Rocket 3.9 19:07:06 10° NNE 19:10:19 33° ENE 19:10:19 33° ENE
Nadezhda 1 Rocket 4.1 19:05:03 10° S 19:11:27 83° W 19:17:46 10° N
Cosmos 1328 Rocket 3.4 19:09:08 10° N 19:13:33 76° E 19:14:59 42° SSE
COSMOS 2455 3.7 19:10:03 10° NNE 19:15:00 29° ENE 19:15:00 29° ENE
NOSS 2-1 (C) 4.0 19:10:36 10° SSW 19:15:14 59° WNW 19:18:58 10° NNE
Cosmos 1455 3.7 19:12:44 10° NNW 19:16:19 37° W 19:19:54 10° SSW
NOSS 2-1 (D) 4.1 19:11:59 10° SW 19:16:37 55° WNW 19:20:21 10° N
TIMED 4.4 19:12:40 10° SSW 19:17:03 86° WNW 19:21:24 10° N
Cosmos 1833 4.2 19:12:46 10° N 19:18:22 59° ENE 19:19:45 46° SE
Thor Agena Rocket 3.6 19:15:25 10° N 19:20:31 77° WNW 19:25:43 10° SSW
Cosmos 2278 3.5 19:15:16 10° S 19:20:53 71° ESE 19:26:30 10° NNE
Hubble Space Telescope 1.0 19:17:09 10° WSW 19:21:17 66° NNW 19:21:59 54° NNE
CZ-2D R/B 3.2 19:24:30 78° NNW 19:24:30 78° NNW 19:28:04 10° NNW
ARIANE 42L R/B 4.0 19:24:45 10° WNW 19:28:45 70° N 19:34:23 31° E
GPS 2-04 Rocket1 4.2 19:25:49 10° W 19:28:28 26° SW 19:28:28 26° SW
Cosmos 1570 Rocket 3.8 19:31:21 10° N 19:36:34 83° ENE 19:36:36 83° E
Cosmos 1656 4.2 19:31:45 10° SSW 19:37:20 59° WNW 19:42:51 10° N
Cosmos 1805 Rocket 3.8 19:37:47 69° WNW 19:37:47 69° WNW 19:42:01 10° N
Meteor 2-8 Rocket 4.3 19:38:00 48° S 19:39:50 81° E 19:45:55 10° N
USA 267 3.6 19:41:25 45° ENE 19:41:35 45° NE 19:47:45 10° NNW
IRAS Rocket 4.4 19:43:49 51° SSW 19:45:11 70° WSW 19:50:46 10° NNW
Cosmos 2208 Rocket 4.1 19:41:16 10° NNW 19:46:08 73° NNW 19:46:08 73° NNW
Envisat 4.2 19:47:25 26° SSW 19:49:35 38° WSW 19:54:16 10° NW
ARIANE 5 R/B 4.1 19:52:49 10° W 19:55:17 31° WNW 19:55:17 31° WNW
Cosmos 2184 Rocket 4.4 19:52:40 10° NNW 19:58:41 59° W 20:00:11 47° SW
SeaSat 1 4.1 19:59:40 10° N 20:04:00 32° WNW 20:08:22 10° SW
BLOCK DM-SL R/B 3.9 19:59:18 10° W 20:04:20 83° S 20:04:33 81° SE
USA 229 DEB 4.2 19:57:22 10° N 20:03:14 51° NNE 20:03:14 51° NNE
USA 229 4.3 19:57:28 10° N 20:03:17 50° NNE 20:03:17 50° NNE
BLOCK DM-SL R/B 4.3 20:03:57 10° W 20:07:20 35° W 20:07:20 35° W
Cosmos 2181 Rocket 4.5 20:13:37 54° NW 20:13:37 54° NW 20:18:39 10° N
ARIANE 5 R/B 3.7 19:48:48 10° W 20:20:18 78° WSW 20:20:18 78° WSW
ARIANE 5 R/B 3.9 20:28:56 10° W 20:55:57 56° WNW 20:55:57 56° WNW
